Overview Statistics Trail Chart Weather Telemetry Raw packets
 

This is the latest recevied weather packets stored in our database for station/object VE8SKI. If no packets are shown the sender has not sent any weather packets the latest 10 day(s).

<< 27 28 29 30 31 32 33 >>
Time Temp. Humidity Pressure Rain* Wind** Luminosity Snow
1777916889 1.11° C 69% 1024.9 hPa 0 mm 1.79 m/s, 150° - -
1777916590 1.11° C 70% 1025 hPa 0 mm 0.45 m/s, 181° - -
1777916290 1.11° C 70% 1025 hPa 0 mm 0 m/s - -
1777915990 1.11° C 71% 1025.2 hPa 0 mm 0 m/s - -
1777915691 0.56° C 71% 1025.3 hPa 0 mm 0.45 m/s, 304° - -
1777915388 0.56° C 71% 1025.2 hPa 0 mm 0.45 m/s, 115° - -
1777915089 0.56° C 71% 1025.3 hPa 0 mm 0 m/s - -
1777914789 0.56° C 73% 1025.3 hPa 0 mm 0 m/s - -
1777914489 0.56° C 72% 1025.3 hPa 0 mm 0.89 m/s, 195° - -
1777914190 0.56° C 72% 1025.4 hPa 0 mm 0 m/s - -
1777913890 0° C 74% 1025.5 hPa 0 mm 0 m/s - -
1777913588 0° C 74% 1025.5 hPa 0 mm 0 m/s - -
1777913288 -0.56° C 75% 1025.5 hPa 0 mm 0.89 m/s, 255° - -
1777912988 -0.56° C 76% 1025.5 hPa 0 mm 0.45 m/s, 148° - -
1777912689 -0.56° C 76% 1025.6 hPa 0 mm 1.34 m/s, 201° - -
1777912389 -1.11° C 77% 1025.5 hPa 0 mm 1.34 m/s, 242° - -
1777912089 -0.56° C 77% 1025.6 hPa 0 mm 0.89 m/s, 153° - -
1777911787 -1.11° C 78% 1025.7 hPa 0 mm 0.89 m/s, 266° - -
1777911487 -1.11° C 78% 1025.6 hPa 0 mm 1.34 m/s, 218° - -
1777911187 -1.11° C 77% 1025.7 hPa 0 mm 0.89 m/s, 290° - -
1777910888 -1.11° C 78% 1025.7 hPa 0 mm 0.45 m/s, 285° - -
1777910612 -1.11° C 77% 1025.8 hPa 0 mm 0 m/s - -
1777910288 -1.11° C 78% 1025.9 hPa 0 mm 0 m/s - -
1777909986 -1.11° C 78% 1025.9 hPa 0 mm 0 m/s - -
1777909686 -1.11° C 78% 1025.9 hPa 0 mm 0 m/s - -

* Rain latest hour (hover to see other rain measurements)
** Current wind speed in m/s (hover to see current wind gust speed)